Regional Weather Roundup
Issued by NWS

Home | Current Version | Previous Version | Graphics & Text | Print | Product List | Glossary On
Versions: 1 2 3 4 5 6 7 8 9 10 11 12 13 14 15 16 17 18 19 20 21 22 23 24 25 26 27 28 29 30 31 32 33 34 35 36 37 38 39 40 41 42 43 44 45 46 47 48 49 50
000
ASUS43 KFSD 281410
RWRSD

WEATHER ROUNDUP FOR SOUTH DAKOTA
NATIONAL WEATHER SERVICE SIOUX FALLS SD
900 AM CDT THU APR 28 2016

NOTE: "FAIR" INDICATES FEW OR NO CLOUDS BELOW 12,000 FEET WITH NO
SIGNIFICANT WEATHER AND/OR OBSTRUCTIONS TO VISIBILITY.


SDZ001>005-009-010-012>017-281500-
NORTHWEST AND NORTH CENTRAL SOUTH DAKOTA

CITY           SKY/WX    TMP DP  RH WIND       PRES   REMARKS
BUFFALO          N/A     35  32  88 N10       29.98R WCI  27
FAITH            N/A     32  30  92 NE10      30.03R WCI  24
MOBRIDGE       LGT RAIN  39  35  86 NE8       30.03R
$$

SDZ012>016-024>037-041>051-057-063-072>074-281500-
SOUTHWEST AND SOUTH CENTRAL SOUTH DAKOTA

CITY           SKY/WX    TMP DP  RH WIND       PRES   REMARKS
RAPID CTY ARPT CLOUDY    33  32  96 N9        30.02R FOG     WCI  25
PIERRE         CLOUDY    37  33  85 N7        30.01R
CUSTER         CLOUDY    29  22  75 VRB3      29.94R
PHILIP         CLOUDY    35  34  96 N12       30.03R FOG     WCI  27
PINE RIDGE     CLOUDY    33  30  88 N7        30.00R WCI  27
WINNER         LGT RAIN  37  34  89 N10       29.99R FOG
$$

SDZ004>011-016>023-039-040-281500-
NORTHEAST SOUTH DAKOTA

CITY           SKY/WX    TMP DP  RH WIND       PRES   REMARKS
ABERDEEN       CLOUDY    41  33  73 NE10      30.02R
WATERTOWN      LGT SNOW  34  32  92 NE6       29.96R FOG     WCI  29
BROOKINGS      LGT SNOW  34  32  93 NE7       29.94R VSB 1   WCI  28
SISSETON         N/A     41  29  62 E12       30.00R
$$

SDZ017-020-022-023-036>040-048>070-281500-
SOUTHEAST SOUTH DAKOTA

CITY           SKY/WX    TMP DP  RH WIND       PRES   REMARKS
SIOUX FALLS    LGT RAIN  39  36  89 NE12      29.90R FOG
HURON          CLOUDY    38  35  89 NE8       29.99R
CHAMBERLAIN    CLOUDY    39  38  98 N7        29.98R
MITCHELL       LGT RAIN  37  35  92 N13       29.97R
YANKTON        CLOUDY    41  37  87 N9        29.91R
$$

ABBREVIATIONS USED IN REMARKS
   TC - TEMPERATURE IN CELSIUS
  WCI - WIND CHILL INDEX
   HX - HEAT INDEX
  VSB - VISIBILITY




USA.gov is the U.S. government's official web portal to all federal, state and local government web resources and services.